Regional Weather Roundup
Issued by NWS Albany, NY

Home | Current Version | Previous Version | Graphics & Text | Print | Product List | Glossary Off
Versions: 1 2 3 4 5 6 7 8 9 10 11 12 13 14 15 16 17 18 19 20 21 22 23 24 25 26 27 28 29 30 31 32 33 34 35 36 37 38 39 40 41 42 43 44 45 46 47 48 49 50

000
ASUS41 KALY 032210
RWRALY

NEW YORK STATE HOURLY WEATHER ROUNDUP
NATIONAL WEATHER SERVICE ALBANY NY
600 PM EDT SUN MAY 03 2015

NOTE: "FAIR" INDICATES FEW OR NO CLOUDS BELOW 12,000 FEET WITH NO
SIGNIFICANT WEATHER AND/OR NO OBSTRUCTIONS TO VISIBILITY.

NYZ032-033-038>043-046>054-057>066-NYZ062>081-032300-
EAST


CITY           SKY/WX    TMP DP  RH WIND       PRES   REMARKS
ALBANY         PTSUNNY   76  38  25 SE8       30.01S
GLENS FALLS    PTSUNNY   74  43  32 SE10      30.01R
POUGHKEEPSIE   PTSUNNY   78  37  22 NW3       30.03R
NEWBURGH       PTSUNNY   75  39  27 VRB5      30.05R
MONTGOMERY     PTSUNNY   75  42  30 CALM      30.03R
WHITE PLAINS   MOSUNNY   71  39  31 S7        30.06R
ISLIP          MOSUNNY   58  45  62 S10       30.10R
NEW YORK CITY  MOSUNNY   67  44  43 S15       30.07R
CENTRAL PARK   MOSUNNY   71  40  32 VRB3      30.09R
$$

NYZ005>009-017-018-044>046-055-056-032300-
CENTRAL


CITY           SKY/WX    TMP DP  RH WIND       PRES   REMARKS
FULTON         SUNNY     75  40  28 W6        30.04S
SYRACUSE       MOSUNNY   76  37  24 NW7       30.04R
ROME           MOSUNNY   75  38  26 W14       30.04S
ELMIRA         PTSUNNY   76  37  24 E5        30.04S
BINGHAMTON     PTSUNNY   73  35  25 NW8       30.08R
MONTICELLO     PTSUNNY   73  34  23 W9        30.09R
$$

NYZ026>034-041>043-032300-
NORTH


CITY           SKY/WX    TMP DP  RH WIND       PRES   REMARKS
WATERTOWN      SUNNY     72  39  30 W7        30.03S
FORT DRUM      NOT AVBL
MASSENA        SUNNY     75  38  26 SW16G22   30.00R
SARANAC LAKE   PTSUNNY   72  33  24 SW10G21   30.02R
PLATTSBURGH    MOSUNNY   72  38  29 S8        29.98R
$$

NYZ001>004-010>016-019>021-032300-
WEST


CITY           SKY/WX    TMP DP  RH WIND       PRES   REMARKS
NIAGARA FALLS  MOSUNNY   73  39  29 SW20G26   30.04R
BUFFALO        MOSUNNY   70  39  32 SW14      30.06S
DUNKIRK        SUNNY     71  38  29 W10       30.07S
JAMESTOWN      SUNNY     70  39  32 W10       30.10S
WELLSVILLE     PTSUNNY   72  32  23 CALM      30.10S
ROCHESTER      MOSUNNY   77  36  22 W13       30.04R
PENN YAN       SUNNY     74  41  30 VRB6      30.06R
$$

             KEY
       WCI = WIND CHILL INDEX
       VSB = VISIBILITY
       HX  = HEAT INDEX
$$



USA.gov is the U.S. government's official web portal to all federal, state and local government web resources and services.